Location: Göttingen
(51.5413°N, 9.9158°E)
Time: 16:51:25
(UTC+02:00)

Tiros 1 despin weight - Pass Details

Date: 26 May 2022
Orbit: 591 x 639 km, 48.2° (Epoch: 04 July)

Event Time Altitude Azimuth Distance (km) Brightness Sun altitude
Rises 00:19:58 0° 276° (W) 2,840 ? -16.3°
Reaches altitude 10° 00:22:24 10° 268° (W) 1,930 ? -16.4°
Maximum altitude 00:26:25 35° 202° (SSW) 968 ? -16.5°
Enters shadow 00:27:11 32° 180° (S) 1,018 ? -16.6°
